Change the Weather History Date:

Friday, March 9, 2012

  Actual Average Record
Temperature  
Mean Temperature 27 °F 28 °F  
Max Temperature 33 °F 37 °F 58 °F (2000)
Min Temperature 21 °F 19 °F -17 °F (1963)
Degree Days  
Heating Degree Days 38 37  
Month to date heating degree days 284 344  
Since 1 July heating degree days 4741 5684  
Cooling Degree Days 0 0  
Month to date cooling degree days 0 0  
Year to date cooling degree days 0 0  
Moisture  
Dew Point 16 °F    
Average Humidity 67    
Maximum Humidity 92    
Minimum Humidity 42    
Precipitation  
Precipitation 0.03 in 0.06 in 0.92 in (1992)
Month to date precipitation 1.81 0.52  
Year to date precipitation 4.57 4.84  
Snow  
Snow 0.00 in - - ()
Snow Depth 1.00 in    
Sea Level Pressure  
Sea Level Pressure 30.27 in    
Wind  
Wind Speed 14 mph (NW)    
Max Wind Speed 29 mph    
Max Gust Speed 38 mph    
Visibility 8 miles    
Events Fog , Snow    
T = Trace of Precipitation, MM = Missing Value Source: NWS Daily Summary

Daily Weather History Graph

Daily Weather History Graph

Search for Another Location

Airport or City:

Trip Planner

Search our weather history database for the weather conditions in past years. The results will help you decide how hot, cold, wet, or windy it might be!

Date:

Astronomy

Mar. 09, 2012 Rise Set
Actual Time 7:04 AM EST 6:41 PM EST
Civil Twilight 6:35 AM EST 7:10 PM EST
Nautical Twilight 6:01 AM EST 7:44 PM EST
Astronomical Twilight 5:27 AM EST 8:18 PM EST
Moon 8:48 PM EST (3/9) 7:16 AM EST (3/9)
Length of Visible Light 12h 34m
Length of Day
11h 36m
Full, 98% of the Moon is Illuminated
Mar 9
Full
Mar 14
Last Quarter
Mar 22
New
Mar 30
First Quarter
Apr 6
Full

Hourly Weather History & Observations

Time (EST) Temp. Windchill Dew Point Humidity Pressure Visibility Wind Dir Wind Speed Gust Speed Precip Events Conditions
12:05 AM 30.2 °F - 28.4 °F 93% 30.00 in 2.0 mi Calm Calm - 0.01 in Snow Light Snow
12:08 AM 30.2 °F - 28.4 °F 93% 30.00 in 0.8 mi Calm Calm - 0.01 in Snow Light Snow
12:17 AM 30.2 °F 24.3 °F 26.6 °F 86% 29.99 in 0.5 mi WSW 5.8 mph - 0.03 in Fog , Snow Snow
12:26 AM 30.2 °F - 26.6 °F 86% 29.99 in 2.0 mi Calm Calm - 0.03 in Snow Light Snow
12:34 AM 30.2 °F - 28.4 °F 93% 29.99 in 4.0 mi Calm Calm - 0.03 in Snow Light Snow
12:49 AM 30.2 °F - 26.6 °F 86% 29.98 in 8.0 mi Calm Calm - 0.03 in Snow Light Snow
12:53 AM 30.0 °F 25.2 °F 26.1 °F 85% 30.01 in 9.0 mi West 4.6 mph - 0.03 in   Overcast
1:53 AM 32.0 °F 21.6 °F 21.0 °F 64% 30.03 in 10.0 mi West 15.0 mph - N/A   Overcast
2:53 AM 30.9 °F 21.2 °F 21.9 °F 69% 30.05 in 8.0 mi WNW 12.7 mph - 0.00 in Snow Light Snow
3:53 AM 30.9 °F 19.8 °F 19.0 °F 61% 30.08 in 10.0 mi WNW 16.1 mph 26.5 mph 0.00 in   Mostly Cloudy
4:53 AM 30.9 °F 19.1 °F 19.9 °F 64% 30.11 in 10.0 mi WNW 18.4 mph 28.8 mph N/A   Overcast
5:53 AM 30.0 °F 16.6 °F 18.0 °F 61% 30.15 in 10.0 mi NW 23.0 mph 29.9 mph N/A   Overcast
6:46 AM 26.6 °F 12.7 °F 19.4 °F 74% 30.17 in 1.0 mi NW 20.7 mph 34.5 mph 0.00 in Snow Light Snow
6:53 AM 26.1 °F 12.7 °F 21.0 °F 81% 30.21 in 1.0 mi NNW 18.4 mph 32.2 mph 0.00 in Snow Light Snow
7:06 AM 26.6 °F 13.8 °F 17.6 °F 69% 30.19 in 5.0 mi NNW 17.3 mph 32.2 mph 0.00 in Snow Light Snow
7:34 AM 26.6 °F 11.4 °F 12.2 °F 55% 30.23 in 9.0 mi NW 25.3 mph 32.2 mph 0.00 in   Mostly Cloudy
7:53 AM 26.1 °F 11.3 °F 12.0 °F 55% 30.27 in 9.0 mi NW 23.0 mph 27.6 mph 0.00 in Snow Light Snow
8:53 AM 26.1 °F 15.0 °F 12.9 °F 58% 30.31 in 9.0 mi NW 12.7 mph 25.3 mph 0.00 in Snow Light Snow
9:53 AM 26.1 °F 12.3 °F 12.0 °F 55% 30.35 in 7.0 mi NW 19.6 mph 28.8 mph 0.00 in Snow Light Snow
10:53 AM 26.1 °F 11.6 °F 14.0 °F 60% 30.39 in 8.0 mi WNW 21.9 mph 32.2 mph 0.00 in Snow Light Snow
11:53 AM 26.1 °F 12.3 °F 12.9 °F 58% 30.41 in 9.0 mi WNW 19.6 mph - 0.00 in Snow Light Snow
12:53 PM 25.0 °F 10.6 °F 14.0 °F 63% 30.44 in 7.0 mi NW 20.7 mph 27.6 mph 0.00 in Snow Light Snow
1:53 PM 24.1 °F 10.6 °F 15.1 °F 69% 30.46 in 7.0 mi NW 17.3 mph 28.8 mph 0.00 in Snow Light Snow
2:53 PM 25.0 °F 12.6 °F 9.0 °F 51% 30.48 in 10.0 mi NW 15.0 mph 25.3 mph 0.00 in Snow Light Snow
3:53 PM 27.0 °F 14.7 °F 9.0 °F 47% 30.50 in 10.0 mi NW 16.1 mph 19.6 mph 0.00 in Snow Light Snow
4:53 PM 26.1 °F 15.0 °F 9.0 °F 49% 30.50 in 10.0 mi NW 12.7 mph - 0.00 in   Mostly Cloudy
5:53 PM 26.1 °F 14.0 °F 8.1 °F 47% 30.51 in 10.0 mi NW 15.0 mph 23.0 mph N/A   Mostly Cloudy
6:53 PM 26.1 °F 16.8 °F 8.1 °F 47% 30.52 in 10.0 mi NW 9.2 mph - N/A   Scattered Clouds
7:53 PM 26.1 °F 17.6 °F 7.0 °F 44% 30.53 in 10.0 mi NNW 8.1 mph - N/A   Partly Cloudy
8:53 PM 25.0 °F 16.3 °F 10.0 °F 53% 30.53 in 10.0 mi North 8.1 mph - N/A   Partly Cloudy
9:53 PM 24.1 °F 19.7 °F 10.0 °F 55% 30.54 in 10.0 mi NE 3.5 mph - N/A   Clear
10:53 PM 21.9 °F 14.5 °F 10.0 °F 60% 30.54 in 10.0 mi ESE 5.8 mph - N/A   Clear
11:53 PM 21.0 °F 16.2 °F 9.0 °F 60% 30.55 in 10.0 mi SSE 3.5 mph - N/A   Overcast